Torna al catalogo

KUIPER-00502

AttivoComunicazioniLEO
NORAD 68883·PAYLOAD·🇺🇸 United States

Lanciato Apr 28, 2026 da Cape Canaveral Space Force Station

Loading…

Prossimi Passaggi (prossime 24 ore)

TLE

AggiornatoSource: CelesTrak SupGP

Epoca: Sep 14, 2026, 21:39 UTC

1 68883C 26095V   26257.90216435 -.00000536  00000+0 -70105-4 0  2576
2 68883  51.8994 190.1962 0001298  61.6428 151.5081 14.79931159    17

Traccia KUIPER-00502 in tempo reale con AllMySat

Download on the App Store